Radiation Dose at Monitoring Post of Fukushima Daini Nuclear Power Station
Date,Time,MP-1(microSv/h),MP-2(microSv/h),MP-3(microSv/h),MP-4(microSv/h),MP-5(microSv/h),MP-6(microSv/h),MP-7(microSv/h),Wind Direction,Wind Velocity(m/s),Rain
2017/10/26,00:00,0.322,0.207,0.337,0.317,0.308,0.164,0.099,north,9.8,No
2017/10/26,00:10,0.324,0.206,0.334,0.316,0.308,0.165,0.098,north,9.0,No
2017/10/26,00:20,0.322,0.207,0.336,0.316,0.307,0.165,0.098,north,10.0,No
2017/10/26,00:30,0.320,0.207,0.336,0.319,0.305,0.164,0.099,north,8.2,No
2017/10/26,00:40,0.322,0.207,0.334,0.316,0.307,0.165,0.099,north,8.4,No
2017/10/26,00:50,0.322,0.206,0.336,0.317,0.307,0.166,0.099,north,8.1,No
2017/10/26,01:00,0.321,0.206,0.336,0.316,0.307,0.165,0.099,north,8.4,No
2017/10/26,01:10,0.323,0.206,0.336,0.317,0.308,0.165,0.099,north,9.3,No
2017/10/26,01:20,0.321,0.207,0.337,0.317,0.308,0.164,0.099,north,10.3,No
2017/10/26,01:30,0.321,0.206,0.336,0.317,0.307,0.165,0.099,north,9.6,No
2017/10/26,01:40,0.322,0.207,0.335,0.317,0.308,0.164,0.099,north,10.1,No
2017/10/26,01:50,0.321,0.206,0.337,0.317,0.307,0.164,0.099,north,11.1,No
2017/10/26,02:00,0.323,0.207,0.336,0.316,0.307,0.163,0.099,north,10.7,No
2017/10/26,02:10,0.321,0.206,0.335,0.316,0.308,0.165,0.100,north,10.1,No
2017/10/26,02:20,0.322,0.207,0.337,0.317,0.307,0.165,0.099,north,10.7,No
2017/10/26,02:30,0.321,0.207,0.335,0.317,0.307,0.164,0.099,north,9.8,No
2017/10/26,02:40,0.323,0.207,0.336,0.317,0.307,0.165,0.098,north,9.8,No
2017/10/26,02:50,0.322,0.206,0.337,0.316,0.308,0.165,0.098,north,10.1,No
2017/10/26,03:00,0.323,0.207,0.335,0.316,0.307,0.164,0.099,north,10.7,No
2017/10/26,03:10,0.322,0.206,0.336,0.317,0.308,0.165,0.099,north,9.0,No
2017/10/26,03:20,0.322,0.206,0.335,0.316,0.307,0.165,0.099,north,9.6,No
2017/10/26,03:30,0.323,0.206,0.336,0.316,0.307,0.165,0.099,north,9.2,No
2017/10/26,03:40,0.321,0.206,0.335,0.317,0.308,0.165,0.099,north,9.5,No
2017/10/26,03:50,0.320,0.207,0.337,0.317,0.307,0.165,0.098,north,8.8,No
2017/10/26,04:00,0.322,0.207,0.337,0.317,0.307,0.164,0.098,north,9.5,No
2017/10/26,04:10,0.321,0.206,0.335,0.317,0.307,0.164,0.099,north,9.6,No
2017/10/26,04:20,0.322,0.206,0.338,0.317,0.306,0.165,0.099,north,10.1,No
2017/10/26,04:30,0.323,0.206,0.336,0.316,0.307,0.164,0.098,-,CALM,No
2017/10/26,04:40,0.321,0.207,0.335,0.319,0.307,0.165,0.099,north,8.1,No
2017/10/26,04:50,0.322,0.206,0.337,0.317,0.307,0.165,0.099,north,8.5,No
2017/10/26,05:00,0.321,0.207,0.335,0.316,0.306,0.165,0.099,north,8.1,No
2017/10/26,05:10,0.322,0.207,0.334,0.317,0.307,0.165,0.099,north,9.2,No
2017/10/26,05:20,0.322,0.205,0.335,0.316,0.307,0.164,0.099,north,7.9,No
2017/10/26,05:30,0.322,0.206,0.336,0.317,0.307,0.165,0.099,north,8.6,No
2017/10/26,05:40,0.322,0.207,0.335,0.316,0.307,0.165,0.099,north,8.2,No
2017/10/26,05:50,0.321,0.206,0.335,0.317,0.308,0.165,0.098,north,6.8,No
2017/10/26,06:00,0.321,0.205,0.336,0.316,0.305,0.164,0.098,north,7.0,No
2017/10/26,06:10,0.321,0.207,0.336,0.316,0.306,0.164,0.098,north,7.3,No
2017/10/26,06:20,0.322,0.207,0.335,0.316,0.307,0.165,0.098,north,6.5,No
2017/10/26,06:30,0.321,0.206,0.336,0.316,0.307,0.164,0.098,north,5.5,No
2017/10/26,06:40,0.320,0.207,0.335,0.315,0.306,0.165,0.099,-,CALM,No
2017/10/26,06:50,0.322,0.207,0.334,0.317,0.307,0.163,0.098,-,CALM,No
2017/10/26,07:00,0.323,0.206,0.336,0.316,0.305,0.165,0.098,north-northwest,4.2,No
2017/10/26,07:10,0.321,0.205,0.336,0.315,0.305,0.164,0.098,north-northwest,4.6,No
2017/10/26,07:20,0.322,0.206,0.334,0.316,0.305,0.164,0.099,north-northwest,5.7,No
2017/10/26,07:30,0.321,0.206,0.338,0.314,0.306,0.165,0.098,north-northwest,6.1,No
2017/10/26,07:40,0.320,0.204,0.335,0.314,0.307,0.164,0.097,north-northwest,7.1,No
2017/10/26,07:50,0.321,0.206,0.334,0.317,0.306,0.165,0.097,north,7.9,No
2017/10/26,08:00,0.320,0.205,0.337,0.315,0.306,0.164,0.098,north-northwest,7.1,No
2017/10/26,08:10,0.321,0.205,0.334,0.316,0.308,0.164,0.098,north,3.7,No
2017/10/26,08:20,0.323,0.205,0.334,0.315,0.308,0.165,0.098,north-northwest,4.2,No
2017/10/26,08:30,0.319,0.206,0.335,0.316,0.308,0.164,0.099,north-northwest,3.5,No
2017/10/26,08:40,0.321,0.205,0.333,0.314,0.306,0.163,0.098,north-northwest,2.6,No
2017/10/26,08:50,0.321,0.206,0.334,0.317,0.307,0.163,0.097,north-northwest,1.0,No
2017/10/26,09:00,0.320,0.206,0.334,0.314,0.305,0.164,0.098,north-northwest,3.0,No
2017/10/26,09:10,0.320,0.207,0.335,0.317,0.309,0.163,0.097,north,2.1,No
2017/10/26,09:20,0.320,0.206,0.336,0.314,0.305,0.164,0.098,north,3.6,No
2017/10/26,09:30,0.322,0.206,0.333,0.317,0.307,0.164,0.098,north,2.5,No
2017/10/26,09:40,0.320,0.205,0.335,0.315,0.306,0.164,0.098,north-northeast,2.5,No
2017/10/26,09:50,0.320,0.205,0.335,0.316,0.308,0.163,0.098,north,3.1,No
2017/10/26,10:00,0.321,0.206,0.334,0.316,0.304,0.165,0.098,north-northeast,2.7,No
2017/10/26,10:10,0.317,0.206,0.335,0.312,0.307,0.164,0.098,north-northeast,2.1,No
2017/10/26,10:20,0.319,0.204,0.334,0.314,0.307,0.164,0.098,north-northeast,2.7,No
2017/10/26,10:30,0.320,0.206,0.334,0.316,0.303,0.165,0.098,northeast,3.2,No
2017/10/26,10:40,0.318,0.206,0.333,0.313,0.308,0.164,0.098,north-northeast,4.0,No
2017/10/26,10:50,0.317,0.204,0.334,0.313,0.307,0.165,0.098,north-northeast,5.0,No
2017/10/26,11:00,0.321,0.207,0.336,0.317,0.305,0.164,0.098,north-northeast,5.7,No
2017/10/26,11:10,0.320,0.205,0.333,0.316,0.306,0.165,0.099,northeast,5.4,No
2017/10/26,11:20,0.319,0.206,0.336,0.315,0.310,0.165,0.099,northeast,4.1,No
2017/10/26,11:30,0.324,0.206,0.333,0.314,0.306,0.165,0.097,northeast,3.9,No
2017/10/26,11:40,0.321,0.204,0.336,0.316,0.307,0.165,0.098,northeast,4.6,No
2017/10/26,11:50,0.320,0.206,0.333,0.317,0.309,0.165,0.099,northeast,3.5,No
2017/10/26,12:00,0.322,0.207,0.337,0.317,0.307,0.166,0.098,north-northeast,3.8,No
2017/10/26,12:10,0.320,0.204,0.336,0.314,0.306,0.165,0.098,northeast,4.2,No
2017/10/26,12:20,0.321,0.208,0.332,0.315,0.309,0.166,0.099,north-northeast,4.8,No
2017/10/26,12:30,0.322,0.207,0.335,0.318,0.307,0.165,0.098,northeast,3.9,No
2017/10/26,12:40,0.319,0.205,0.336,0.317,0.305,0.165,0.098,northeast,4.5,No
2017/10/26,12:50,0.325,0.207,0.332,0.315,0.309,0.166,0.099,northeast,3.8,No
2017/10/26,13:00,0.321,0.206,0.331,0.315,0.309,0.165,0.097,northeast,4.0,No
2017/10/26,13:10,0.323,0.204,0.337,0.314,0.305,0.165,0.097,northeast,3.7,No
2017/10/26,13:20,0.322,0.206,0.337,0.319,0.308,0.166,0.099,north-northeast,4.6,No
2017/10/26,13:30,0.322,0.206,0.332,0.319,0.309,0.165,0.099,north-northeast,4.1,No
2017/10/26,13:40,0.323,0.205,0.333,0.315,0.306,0.166,0.098,north-northeast,3.6,No
2017/10/26,13:50,0.320,0.206,0.336,0.315,0.307,0.167,0.098,northeast,2.6,No
2017/10/26,14:00,0.323,0.206,0.335,0.319,0.309,0.165,0.099,north-northeast,1.8,No
2017/10/26,14:10,0.319,0.205,0.335,0.318,0.308,0.166,0.100,northeast,2.4,No
2017/10/26,14:20,0.324,0.208,0.337,0.317,0.311,0.165,0.099,northeast,2.0,No
2017/10/26,14:30,0.321,0.207,0.335,0.321,0.309,0.165,0.099,east-northeast,2.2,No
2017/10/26,14:40,0.323,0.208,0.339,0.317,0.309,0.166,0.099,northeast,2.0,No
2017/10/26,14:50,0.321,0.207,0.336,0.320,0.310,0.166,0.099,northeast,1.5,No
2017/10/26,15:00,0.322,0.207,0.337,0.318,0.310,0.165,0.098,northeast,1.7,No
2017/10/26,15:10,0.320,0.207,0.336,0.321,0.311,0.165,0.099,northeast,1.8,No
2017/10/26,15:20,0.322,0.207,0.338,0.317,0.309,0.165,0.098,northeast,2.2,No
2017/10/26,15:30,0.322,0.208,0.334,0.319,0.312,0.165,0.099,northeast,1.6,No
2017/10/26,15:40,0.323,0.208,0.337,0.318,0.309,0.164,0.098,northeast,1.4,No
2017/10/26,15:50,0.321,0.207,0.335,0.320,0.311,0.166,0.099,north-northeast,1.5,No
2017/10/26,16:00,0.323,0.207,0.336,0.317,0.308,0.165,0.099,northeast,1.3,No
2017/10/26,16:10,0.321,0.207,0.337,0.319,0.310,0.167,0.099,east-northeast,0.8,No
2017/10/26,16:20,0.323,0.207,0.338,0.318,0.308,0.166,0.099,northeast,0.6,No
2017/10/26,16:30,0.322,0.207,0.337,0.320,0.310,0.166,0.099,north-northeast,0.8,No
2017/10/26,16:40,0.323,0.206,0.335,0.318,0.309,0.167,0.099,-,CALM,No
2017/10/26,16:50,0.322,0.207,0.338,0.318,0.312,0.166,0.099,-,CALM,No
2017/10/26,17:00,0.321,0.208,0.337,0.319,0.310,0.166,0.100,-,CALM,No
2017/10/26,17:10,0.322,0.207,0.338,0.318,0.307,0.166,0.099,-,CALM,No
2017/10/26,17:20,0.321,0.207,0.335,0.322,0.310,0.167,0.099,-,CALM,No
2017/10/26,17:30,0.323,0.208,0.335,0.319,0.308,0.165,0.099,-,CALM,No
2017/10/26,17:40,0.323,0.208,0.338,0.321,0.310,0.167,0.098,-,CALM,No
2017/10/26,17:50,0.321,0.208,0.337,0.319,0.309,0.166,0.099,-,CALM,No
2017/10/26,18:00,0.322,0.207,0.339,0.320,0.309,0.167,0.099,-,CALM,No
2017/10/26,18:10,0.322,0.207,0.335,0.321,0.310,0.166,0.099,-,CALM,No
2017/10/26,18:20,0.323,0.209,0.337,0.318,0.308,0.167,0.099,-,CALM,No
2017/10/26,18:30,0.322,0.208,0.337,0.319,0.309,0.167,0.098,-,CALM,No
2017/10/26,18:40,0.322,0.207,0.336,0.318,0.309,0.168,0.099,-,CALM,No
2017/10/26,18:50,0.324,0.208,0.338,0.319,0.307,0.167,0.100,-,CALM,No
2017/10/26,19:00,0.320,0.207,0.337,0.320,0.309,0.165,0.098,-,CALM,No
2017/10/26,19:10,0.322,0.207,0.337,0.318,0.308,0.167,0.099,-,CALM,No
2017/10/26,19:20,0.322,0.208,0.337,0.318,0.309,0.166,0.099,south-southeast,0.9,No
2017/10/26,19:30,0.320,0.207,0.336,0.319,0.308,0.166,0.099,south,1.1,No
2017/10/26,19:40,0.323,0.206,0.336,0.318,0.309,0.166,0.100,south,1.6,No
2017/10/26,19:50,0.321,0.208,0.337,0.319,0.309,0.167,0.099,south,1.9,No
2017/10/26,20:00,0.323,0.206,0.337,0.319,0.308,0.167,0.100,south,2.0,No
2017/10/26,20:10,0.323,0.207,0.337,0.319,0.309,0.167,0.099,south,1.6,No
2017/10/26,20:20,0.322,0.208,0.336,0.318,0.309,0.166,0.099,south,2.7,No
2017/10/26,20:30,0.321,0.207,0.335,0.320,0.308,0.166,0.099,south,2.9,No
2017/10/26,20:40,0.321,0.207,0.339,0.319,0.309,0.166,0.099,south,2.3,No
2017/10/26,20:50,0.322,0.208,0.338,0.319,0.309,0.167,0.099,south,2.6,No
2017/10/26,21:00,0.323,0.208,0.337,0.320,0.309,0.166,0.099,south,2.8,No
2017/10/26,21:10,0.322,0.207,0.339,0.318,0.309,0.167,0.099,south,3.3,No
2017/10/26,21:20,0.320,0.207,0.339,0.319,0.308,0.166,0.099,south,3.5,No
2017/10/26,21:30,0.323,0.208,0.337,0.319,0.309,0.166,0.099,south,3.7,No
2017/10/26,21:40,0.322,0.208,0.338,0.319,0.309,0.168,0.099,south-southwest,3.1,No
2017/10/26,21:50,0.320,0.208,0.337,0.320,0.310,0.167,0.099,south,3.3,No
2017/10/26,22:00,0.321,0.208,0.336,0.320,0.308,0.166,0.099,south-southwest,3.0,No
2017/10/26,22:10,0.321,0.208,0.338,0.318,0.309,0.167,0.099,south-southwest,2.6,No
2017/10/26,22:20,0.322,0.207,0.336,0.319,0.309,0.167,0.099,south-southwest,3.4,No
2017/10/26,22:30,0.322,0.208,0.337,0.320,0.309,0.166,0.100,south-southwest,3.4,No
2017/10/26,22:40,0.321,0.207,0.338,0.320,0.308,0.166,0.100,south-southwest,3.2,No
2017/10/26,22:50,0.322,0.208,0.336,0.320,0.309,0.166,0.099,south,3.5,No
2017/10/26,23:00,0.320,0.206,0.339,0.319,0.311,0.166,0.100,south-southwest,3.7,No
2017/10/26,23:10,0.321,0.208,0.339,0.319,0.308,0.167,0.100,south-southwest,3.7,No
2017/10/26,23:20,0.321,0.207,0.337,0.320,0.310,0.167,0.100,south-southwest,3.7,No
2017/10/26,23:30,0.322,0.207,0.336,0.318,0.308,0.167,0.100,south-southwest,3.3,No
2017/10/26,23:40,0.321,0.208,0.338,0.317,0.309,0.166,0.099,south-southwest,3.2,No
2017/10/26,23:50,0.322,0.207,0.338,0.321,0.309,0.167,0.098,south,3.3,No
